Lexington Weather

Lexington, Massachusetts, USA

56°F
10/22/2020 8:14pm 
  • Lexington Conditions: Mostly cloudy
  • Temperature: 55.8°F / 13.2°C 
  • Dew Point: 54.3°F 
  • Relative Humidity: 95
  • Wind: Calm, 10-min avg: Calm, gust: 1 mph
  • Barometer: 30.22 in Steady
  • Visibility: 7 miles
  • Rain Today: 0.00 in
  •   
Southeast Middlesex County - Special Weather Statement
 - SEE ALL NEARBY ALERTS -

Regional Weather Roundup
for Boston / Norton, MA

        
000
ASUS41 KBOX 161804
RWRBOX

REGIONAL WEATHER ROUNDUP
NATIONAL WEATHER SERVICE BOSTON/NORTON MA
200 PM EDT FRI OCT 16 2020

NOTE:  "FAIR" INDICATES FEW OR NO CLOUDS BELOW 12,000 FEET WITH NO 
SIGNIFICANT WEATHER AND/OR OBSTRUCTIONS TO VISIBILITY.

MAZALL-161900-
EASTERN MASSACHUSETTS
  
CITY           SKY/WX    TMP DP  RH WIND       PRES   REMARKS
BOSTON         NOT AVBL                                               
BEVERLY        LGT RAIN  59  55  87 N8        30.02F                  
LAWRENCE       CLOUDY    58  55  90 N6        30.04F                  
BEDFORD        LGT RAIN  57  53  86 N7        30.02F                  
BLUE HILL        N/A     55  55 100 N16G25    30.01F                  
NORWOOD        RAIN      59  55  87 N9G20     30.02R FOG              
MARSHFIELD     PTSUNNY   70  66  88 S9G17     30.01F                  
PLYMOUTH       CLOUDY    69  64  84 S9        30.02F                  
TAUNTON        CLOUDY    70  65  84 S9G17     30.01F                  
NEW BEDFORD    CLOUDY    71  65  81 S17G26    30.01F                  
$$

MAZALL-161900-
CAPE COD AND THE ISLANDS
  
CITY           SKY/WX    TMP DP  RH WIND       PRES   REMARKS
FALMOUTH       PTSUNNY   70  63  78 S15G23    30.04F                  
HYANNIS        CLOUDY    69  61  75 S10G20    30.04F                  
CHATHAM        CLOUDY    67  59  75 S12G24    30.07F                  
PROVINCETOWN   PTSUNNY   70  62  76 S17G23    30.04F                  
NANTUCKET      CLOUDY    70  62  76 S16       30.06F                  
MARTHAS VNYRD  MOSUNNY   70  62  76 S18G28    30.04F                  
$$
 
MAZALL-161900-
CENTRAL AND WESTERN MASSACHUSETTS
  
CITY           SKY/WX    TMP DP  RH WIND       PRES   REMARKS
WORCESTER      LGT RAIN  55  52  89 NW7       30.04S                  
6HR MIN TEMP:  55; 6HR MAX TEMP:  65; 6HR PCP:  0.02;                

FITCHBURG      LGT RAIN  57  52  83 N6        30.05F                  
ORANGE         RAIN      54  51  90 N7        30.06F FOG              
SPRINGFIELD    RAIN      54  52  94 NW3       30.05F FOG              
WESTFIELD      LGT RAIN  54  52  93 CALM      30.07S                  
NORTH ADAMS    LGT RAIN  51  49  92 W3        30.08S FOG              
PITTSFIELD     LGT RAIN  50  47  89 NW3       30.07S FOG              
$$
 
RIZALL-161900-
RHODE ISLAND
  
CITY           SKY/WX    TMP DP  RH WIND       PRES   REMARKS
PROVIDENCE     LGT RAIN  67  66  97 S10       30.01S FOG              
6HR MIN TEMP:  67; 6HR MAX TEMP:  71; 6HR PCP:  0.12;                

NEWPORT        CLOUDY    67  65  93 S14G23    30.01F                  
BLOCK ISLAND   CLOUDY    67  63  87 S15       30.02S                  
SMITHFIELD     LGT RAIN  58  58 100 NW9         N/A                   
WESTERLY       CLOUDY    60  57  89 CALM      30.03R                  
$$
 
CTZALL-161900-
CONNECTICUT
  
CITY           SKY/WX    TMP DP  RH WIND       PRES   REMARKS
BRADLEY INTL   LGT RAIN  54  52  93 N5        30.05F FOG              
6HR MIN TEMP:  54; 6HR MAX TEMP:  65; 6HR PCP:  0.50;                

HARTFORD       RAIN      54  51  90 N7        30.05F FOG              
BRIDGEPORT     LGT RAIN  55  52  89 N7        30.09R FOG              
DANBURY        HVY RAIN  53  51  93 N5        30.10R FOG              
GROTON         NOT AVBL                                               
NEW HAVEN      LGT RAIN  56  53  90 N8        30.05R FOG              
CHESTER        NOT AVBL                                               
MERIDEN        LGT RAIN  53  50  89 N9        30.05F                  
WILLIMANTIC    LGT RAIN  55  52  89 VRB5      30.06R                  
OXFORD         HVY RAIN  52  51  97 N9        30.06S FOG              
$$

MEZ002-015-021-024-NHZ003-005-008-011-012-014-VTZ005-008-161900-
NORTHERN NEW ENGLAND
  
CITY           SKY/WX    TMP DP  RH WIND       PRES   REMARKS
PORTLAND ME    LGT RAIN  59  59 100 W7        30.03S FOG              
BANGOR ME      CLOUDY    65  56  72 S18G31    30.04F                  
CONCORD NH     CLOUDY    56  51  84 N8        30.03F                  
MANCHESTER NH  CLOUDY    58  49  72 NW7       30.01F                  
NASHUA NH      CLOUDY    57  53  86 NW8       30.04F                  
PORTSMOUTH NH  CLOUDY    60  56  87 NW6       30.01F                  
JAFFREY NH     HVY RAIN  51  48  89 NW5       30.05F FOG              
KEENE NH       LGT RAIN  54  51  90 N7        30.06F                  
BURLINGTON VT  CLOUDY    51  48  89 E3        30.09F                  
MT. WASHINGTON LGT RAIN  36  36 100 W21G33      N/A  VSB 1/16WCI  24  
$$

NYZ052-076-161900-
EASTERN NEW YORK
  
CITY           SKY/WX    TMP DP  RH WIND       PRES   REMARKS
ALBANY         DRIZZLE   47  47 100 W6        30.12S FOG              
6HR MIN TEMP:  47; 6HR MAX TEMP:  50; 6HR PCP:  0.12;                

NEW YORK CITY  RAIN      55  50  83 NW12      30.10R                  
6HR MIN TEMP:  55; 6HR MAX TEMP:  64; 6HR PCP:  1.02;                

$$
 
ANZALL-161900-
MARINE OBSERVATIONS
  
STATION/POSITION TIME  TEMP    WIND        PRES    VSBY  WAVE
                       AIR SEA DIR/SP/G                  HT/PER
                 (UTC) (F)     (DEG/KT/KT) (MB)    (MI)  (FT/S)
BOSTON BUOY      1750   61 58  150/ 10/ 12 1015.2F         2/10
BUZZARDS BAY     1700          170/ 19/ 20 1017.4F
NANTUCKET SOUND  1750      62  170/ 17/ 21   N/A           2/ 4
MASS BAY-STELLWA 1704   62 58  170/ 12/ 14 1015.8F  1 7/8  2/ 5
ISLE OF SHOALS   1700   59     320/ 14/ 16 1016.7R
S OF BLOCK IS    1726      64                N/A           4/ 5
$$

......................KEY.........................
  SKY/WX - SKY CONDITION/PRESENT WEATHER
  TMP    - TEMPERATURE IN FAHRENHEIT
  DWPT   - DEWPOINT IN FAHRENHEIT
  RH     - RELATIVE HUMIDITY IN PERCENT
  WIND   - DIRECTION AND SPEED IN MPH
  PRES   - MEAN SEA LEVEL PRESSURE IN INCHES OF HG
  WCI    - WIND CHILL INDEX
  VSB    - VISIBILITY IN MILES
  HX     - HEAT INDEX
  TC     - TEMPERATURE IN CELSIUS
  VRB    - VARIABLE WIND DIRECTION
  N/A    - NOT AVAILABLE
  
      

Other recent Regional Weather Roundups

Thu Oct 22, 7:05pm

Thu Oct 22, 6:04pm

Thu Oct 22, 5:04pm

Thu Oct 22, 4:05pm

Thu Oct 22, 3:04pm

Thu Oct 22, 2:05pm

Thu Oct 22, 1:04pm

Thu Oct 22, 12:04pm

Thu Oct 22, 11:04am

Thu Oct 22, 10:05am

Thu Oct 22, 9:04am

Thu Oct 22, 8:05am

Thu Oct 22, 7:04am

Thu Oct 22, 6:04am

Thu Oct 22, 5:04am

Thu Oct 22, 4:04am

Thu Oct 22, 3:04am

Thu Oct 22, 2:04am

Thu Oct 22, 1:04am

Thu Oct 22, 12:04am

Wed Oct 21, 11:05pm

Wed Oct 21, 10:04pm

Wed Oct 21, 9:04pm

Wed Oct 21, 8:04pm

Wed Oct 21, 7:04pm

Wed Oct 21, 6:04pm

Wed Oct 21, 5:05pm

Wed Oct 21, 4:04pm

Wed Oct 21, 3:04pm

Wed Oct 21, 2:05pm

Wed Oct 21, 1:04pm

Wed Oct 21, 12:04pm

Wed Oct 21, 11:04am

Wed Oct 21, 10:04am

Wed Oct 21, 9:04am

Wed Oct 21, 8:04am

Wed Oct 21, 7:04am

Wed Oct 21, 6:04am

Wed Oct 21, 5:04am

Wed Oct 21, 4:04am

Wed Oct 21, 3:04am

Wed Oct 21, 2:04am

Wed Oct 21, 1:04am

Wed Oct 21, 12:04am

Tue Oct 20, 11:05pm

Tue Oct 20, 10:04pm

Tue Oct 20, 9:04pm

Tue Oct 20, 8:05pm

Tue Oct 20, 7:04pm

Tue Oct 20, 6:04pm

Tue Oct 20, 5:05pm

Tue Oct 20, 4:04pm

Tue Oct 20, 3:05pm

Tue Oct 20, 2:07pm

Tue Oct 20, 1:04pm

Tue Oct 20, 12:04pm

Tue Oct 20, 11:04am

Tue Oct 20, 10:05am

Tue Oct 20, 9:04am

Tue Oct 20, 8:04am

Tue Oct 20, 7:04am

Tue Oct 20, 6:04am

Tue Oct 20, 5:04am

Tue Oct 20, 4:04am

Tue Oct 20, 3:04am

Tue Oct 20, 2:04am

Tue Oct 20, 1:04am

Tue Oct 20, 12:04am

Mon Oct 19, 11:04pm

Mon Oct 19, 10:04pm

Mon Oct 19, 9:04pm

Mon Oct 19, 8:04pm

Mon Oct 19, 7:04pm

Mon Oct 19, 6:04pm

Mon Oct 19, 5:04pm

Mon Oct 19, 4:04pm

Mon Oct 19, 3:04pm

Mon Oct 19, 2:04pm

Mon Oct 19, 1:05pm

Mon Oct 19, 12:04pm

Mon Oct 19, 11:04am

Mon Oct 19, 10:04am

Mon Oct 19, 9:04am

Mon Oct 19, 8:04am

Mon Oct 19, 7:04am

Mon Oct 19, 6:04am

Mon Oct 19, 5:04am

Mon Oct 19, 4:04am

Mon Oct 19, 3:04am

Mon Oct 19, 2:04am

Mon Oct 19, 1:04am

Mon Oct 19, 12:05am

Sun Oct 18, 11:04pm

Sun Oct 18, 10:04pm

Sun Oct 18, 9:04pm

Sun Oct 18, 8:04pm

Sun Oct 18, 7:05pm

Sun Oct 18, 6:04pm

Sun Oct 18, 5:05pm

Sun Oct 18, 4:05pm

Sun Oct 18, 3:04pm

Sun Oct 18, 2:05pm

Sun Oct 18, 1:04pm

Sun Oct 18, 12:04pm

Sun Oct 18, 11:04am

Sun Oct 18, 10:04am

Sun Oct 18, 9:04am

Sun Oct 18, 8:04am

Sun Oct 18, 7:04am

Sun Oct 18, 6:04am

Sun Oct 18, 5:04am

Sun Oct 18, 4:04am

Sun Oct 18, 3:04am

Sun Oct 18, 2:04am

Sun Oct 18, 1:04am

Sun Oct 18, 12:04am

Sat Oct 17, 11:05pm

Sat Oct 17, 10:04pm

Sat Oct 17, 9:04pm

Sat Oct 17, 8:04pm

Sat Oct 17, 7:04pm

Sat Oct 17, 6:04pm

Sat Oct 17, 5:05pm

Sat Oct 17, 4:04pm

Sat Oct 17, 3:04pm

Sat Oct 17, 2:05pm

Sat Oct 17, 1:05pm

Sat Oct 17, 12:04pm

Sat Oct 17, 11:05am

Sat Oct 17, 10:04am

Sat Oct 17, 9:04am

Sat Oct 17, 8:04am

Sat Oct 17, 7:04am

Sat Oct 17, 6:04am

Sat Oct 17, 5:04am

Sat Oct 17, 4:04am

Sat Oct 17, 3:04am

Sat Oct 17, 2:04am

Sat Oct 17, 1:05am

Sat Oct 17, 12:04am

Fri Oct 16, 11:05pm

Fri Oct 16, 10:04pm

Fri Oct 16, 9:05pm

Fri Oct 16, 8:04pm

Fri Oct 16, 7:05pm

Fri Oct 16, 6:04pm

Fri Oct 16, 5:04pm

Fri Oct 16, 4:05pm

Fri Oct 16, 3:04pm

Fri Oct 16, 1:04pm

Fri Oct 16, 12:04pm

Fri Oct 16, 11:05am

Fri Oct 16, 10:04am

Fri Oct 16, 9:04am

Fri Oct 16, 8:04am

Fri Oct 16, 7:04am

Fri Oct 16, 6:04am

Fri Oct 16, 5:04am

Fri Oct 16, 4:04am

Fri Oct 16, 3:04am

Fri Oct 16, 2:04am

Fri Oct 16, 1:04am

Fri Oct 16, 12:04am

Thu Oct 15, 11:04pm

Thu Oct 15, 10:04pm

Thu Oct 15, 9:05pm

Thu Oct 15, 8:04pm

Meta data:

ID: 35bba88d-a14c-4ffc-acf8-91f63e3a8c18
Link: https://api.weather.gov/products/35bba88d-a14c-4ffc-acf8-91f63e3a8c18